Location: Makakahi
(40.6833°S, 175.6000°E)
Time: 22:34:33
(UTC+00:00)

FENGYUN 1C DEB - Pass Details

Date: 06 December 2024
Orbit: 841 x 907 km, 98.9° (Epoch: 11 January)

Event Time Altitude Azimuth Distance (km) Brightness Sun altitude
Rises 09:54:58 0° 173° (S) 3,515 ? -19.5°
Reaches altitude 10° 09:57:29 10° 179° (S) 2,559 ? -19.8°
Maximum altitude 10:02:51 44° 249° (WSW) 1,189 ? -20.3°
Drops below altitude 10° 10:08:04 10° 319° (NW) 2,491 ? -20.8°
Enters shadow 10:09:04 - 322° (NW) 2,863 ? -20.9°
